DLH778 EDDH-EGKK

Flight info

Callsign DLH778
Flight time N/A
Altitude 40000
Route WSN5C/05 WSN N125 ONTAZ DCT GALSO Q63 ARREK Y4 TEBRA
Aircraft A359/H-SDE2E3GHIJ3J4J5LM1ORWXY/LB1D1

Departure

Time 2026-05-06 10:59
Airport Hamburg Helmut Schmidt Airport (EDDH)

Arrival

Time N/A
Airport London Gatwick Airport (EGKK)
Time Latitude Longitude Altitude Speed Heading
2026-05-06 10:45 53.63351 10.00252 56 ft 3 kts 54°
2026-05-06 10:46 53.63337 10.00231 51 ft 2 kts 30°
2026-05-06 10:46 53.63323 10.00216 52 ft 2 kts 30°
2026-05-06 10:46 53.63308 10.00202 49 ft 2 kts 30°
2026-05-06 10:46 53.63294 10.00189 49 ft 2 kts 30°
2026-05-06 10:47 53.63284 10.00179 49 ft 0 kts
2026-05-06 10:48 53.63285 10.00179 49 ft 1 kts
2026-05-06 10:49 53.63315 10.00189 49 ft 8 kts 11°
2026-05-06 10:49 53.63371 10.00193 53 ft 8 kts 352°
2026-05-06 10:49 53.63418 10.00146 50 ft 8 kts 310°
2026-05-06 10:49 53.63424 10.00061 52 ft 7 kts 256°
2026-05-06 10:50 53.63393 9.99994 50 ft 8 kts 230°
2026-05-06 10:50 53.63355 9.99917 51 ft 9 kts 230°
2026-05-06 10:50 53.63312 9.99830 49 ft 10 kts 230°
2026-05-06 10:50 53.63263 9.99736 51 ft 11 kts 220°
2026-05-06 10:51 53.63207 9.99641 50 ft 12 kts 229°
2026-05-06 10:51 53.63150 9.99528 50 ft 13 kts 232°
2026-05-06 10:51 53.63100 9.99405 50 ft 13 kts 235°
2026-05-06 10:51 53.63043 9.99272 49 ft 14 kts 232°
2026-05-06 10:52 53.62978 9.99138 51 ft 15 kts 230°
2026-05-06 10:52 53.62909 9.98998 49 ft 16 kts 230°
2026-05-06 10:52 53.62837 9.98852 49 ft 17 kts 230°
2026-05-06 10:52 53.62761 9.98700 51 ft 17 kts 230°
2026-05-06 10:53 53.62684 9.98543 49 ft 18 kts 230°
2026-05-06 10:53 53.62603 9.98381 49 ft 18 kts 230°
2026-05-06 10:53 53.62519 9.98216 49 ft 19 kts 223°
2026-05-06 10:53 53.62418 9.98067 50 ft 20 kts 221°
2026-05-06 10:54 53.62359 9.97955 49 ft 19 kts 230°
2026-05-06 10:54 53.62271 9.97777 53 ft 20 kts 230°
2026-05-06 10:54 53.62180 9.97592 49 ft 21 kts 230°
2026-05-06 10:54 53.62086 9.97401 49 ft 22 kts 230°
2026-05-06 10:55 53.61986 9.97201 52 ft 23 kts 230°
2026-05-06 10:55 53.61881 9.96990 49 ft 24 kts 230°
2026-05-06 10:55 53.61781 9.96789 51 ft 21 kts 230°
2026-05-06 10:55 53.61698 9.96620 52 ft 15 kts 230°
2026-05-06 10:56 53.61667 9.96477 54 ft 14 kts 283°
2026-05-06 10:56 53.61700 9.96425 52 ft 0 kts 343°
2026-05-06 10:56 53.61701 9.96425 52 ft 1 kts 343°
2026-05-06 10:56 53.61734 9.96416 54 ft 8 kts
2026-05-06 10:57 53.61805 9.96429 53 ft 11 kts
2026-05-06 10:57 53.61872 9.96478 53 ft 9 kts 46°
2026-05-06 10:57 53.61894 9.96521 53 ft 0 kts 49°
2026-05-06 10:58 53.61895 9.96524 53 ft 4 kts 49°
2026-05-06 10:59 53.62067 9.96865 50 ft 76 kts 50°
2026-05-06 10:59 53.62556 9.97853 50 ft 141 kts 50°
2026-05-06 10:59 53.63285 9.99330 314 ft 176 kts 50°
2026-05-06 10:59 53.64032 10.00833 1335 ft 166 kts 50°
2026-05-06 11:00 53.64811 10.02405 1985 ft 181 kts 51°
2026-05-06 11:00 53.65632 10.04080 2716 ft 187 kts 51°
2026-05-06 11:00 53.66463 10.05775 3576 ft 189 kts 52°
2026-05-06 11:00 53.67309 10.07506 4235 ft 199 kts 52°
2026-05-06 11:01 53.68218 10.09343 4984 ft 208 kts 50°
2026-05-06 11:01 53.69372 10.10850 5806 ft 215 kts 26°
2026-05-06 11:01 53.70872 10.11189 6640 ft 227 kts 354°
2026-05-06 11:01 53.72374 10.09983 7094 ft 259 kts 319°
2026-05-06 11:02 53.73337 10.07258 7630 ft 281 kts 291°
2026-05-06 11:02 53.73863 10.04073 8660 ft 283 kts 278°
2026-05-06 11:02 53.73808 10.00764 9759 ft 283 kts 261°
2026-05-06 11:02 53.73346 9.97473 10489 ft 296 kts 252°
2026-05-06 11:03 53.72619 9.94075 10861 ft 320 kts 247°
2026-05-06 11:03 53.71697 9.90511 11272 ft 340 kts 245°
2026-05-06 11:03 53.70687 9.86838 12013 ft 348 kts 243°
2026-05-06 11:03 53.69659 9.83100 12872 ft 353 kts 243°
2026-05-06 11:04 53.68637 9.79308 13723 ft 358 kts 243°
2026-05-06 11:04 53.67620 9.75445 14498 ft 361 kts 245°
2026-05-06 11:04 53.66608 9.71539 15329 ft 364 kts 244°
2026-05-06 11:04 53.65602 9.67617 16185 ft 365 kts 245°
2026-05-06 11:05 53.64596 9.63685 17062 ft 366 kts 245°
2026-05-06 11:05 53.63591 9.59767 17869 ft 371 kts 244°
2026-05-06 11:05 53.62553 9.55744 18574 ft 378 kts 245°
2026-05-06 11:05 53.61502 9.51670 19339 ft 380 kts 245°
2026-05-06 11:06 53.60441 9.47558 19984 ft 386 kts 244°
2026-05-06 11:06 53.59364 9.43390 20698 ft 390 kts 245°
2026-05-06 11:06 53.58275 9.39190 21437 ft 393 kts 245°
2026-05-06 11:06 53.57176 9.34957 22166 ft 396 kts 245°
2026-05-06 11:07 53.56061 9.30674 22820 ft 401 kts 245°
2026-05-06 11:07 53.54933 9.26350 23510 ft 404 kts 245°
2026-05-06 11:07 53.53795 9.21997 24074 ft 408 kts 244°
2026-05-06 11:07 53.52644 9.17605 24637 ft 413 kts 244°
2026-05-06 11:08 53.51481 9.13171 25188 ft 417 kts 244°
2026-05-06 11:08 53.50304 9.08697 25749 ft 421 kts 244°
2026-05-06 11:08 53.49116 9.04188 26299 ft 424 kts 244°
2026-05-06 11:08 53.47914 8.99635 26843 ft 428 kts 244°
2026-05-06 11:09 53.46702 8.95052 27405 ft 432 kts 244°
2026-05-06 11:09 53.45475 8.90422 27951 ft 436 kts 244°
2026-05-06 11:09 53.44237 8.85760 28521 ft 439 kts 244°
2026-05-06 11:09 53.42986 8.81060 29031 ft 443 kts 244°
2026-05-06 11:10 53.41738 8.76383 29538 ft 447 kts 244°
2026-05-06 11:10 53.40462 8.71609 30002 ft 451 kts 244°
2026-05-06 11:10 53.39176 8.66803 30440 ft 454 kts 244°
2026-05-06 11:10 53.37879 8.61968 30908 ft 456 kts 244°
2026-05-06 11:11 53.36577 8.57124 31351 ft 458 kts 244°
2026-05-06 11:11 53.35264 8.52251 31788 ft 460 kts 244°
2026-05-06 11:11 53.33939 8.47343 32200 ft 462 kts 244°
2026-05-06 11:11 53.32611 8.42437 32594 ft 464 kts 244°
2026-05-06 11:12 53.31275 8.37513 32972 ft 466 kts 243°
2026-05-06 11:12 53.29932 8.32570 33339 ft 468 kts 243°
2026-05-06 11:12 53.28580 8.27607 33686 ft 470 kts 243°
2026-05-06 11:12 53.27218 8.22621 34005 ft 471 kts 243°
2026-05-06 11:13 53.25858 8.17648 34448 ft 469 kts 243°
2026-05-06 11:13 53.24506 8.12713 34891 ft 467 kts 243°
2026-05-06 11:13 53.23151 8.07779 35239 ft 467 kts 243°
2026-05-06 11:13 53.21797 8.02860 35561 ft 467 kts 243°
2026-05-06 11:14 53.20438 7.97936 35892 ft 467 kts 244°
2026-05-06 11:14 53.19097 7.93085 36219 ft 467 kts 244°
2026-05-06 11:14 53.17736 7.88175 36528 ft 467 kts 244°
2026-05-06 11:14 53.16374 7.83270 36842 ft 466 kts 244°
2026-05-06 11:15 53.15009 7.78364 37150 ft 466 kts 244°
2026-05-06 11:15 53.13642 7.73462 37483 ft 466 kts 244°
2026-05-06 11:15 53.12275 7.68570 37797 ft 465 kts 244°
2026-05-06 11:15 53.10905 7.63678 38102 ft 466 kts 244°
2026-05-06 11:16 53.09532 7.58787 38316 ft 467 kts 244°
2026-05-06 11:16 53.08158 7.53902 38587 ft 467 kts 244°
2026-05-06 11:16 53.06779 7.49005 38786 ft 467 kts 244°
2026-05-06 11:16 53.05398 7.44117 38978 ft 467 kts 244°
2026-05-06 11:17 53.04015 7.39232 39168 ft 467 kts 244°
2026-05-06 11:17 53.02630 7.34347 39360 ft 467 kts 244°
2026-05-06 11:17 53.01242 7.29463 39531 ft 468 kts 244°
2026-05-06 11:17 52.99851 7.24578 39705 ft 468 kts 244°
2026-05-06 11:18 52.98454 7.19683 39845 ft 469 kts 243°
2026-05-06 11:18 52.95658 7.09915 39891 ft 468 kts 243°
2026-05-06 11:19 52.92873 7.00225 39877 ft 469 kts 243°
2026-05-06 11:19 52.91923 6.96930 39875 ft 469 kts 243°
2026-05-06 11:21 52.81739 6.61880 39868 ft 469 kts 243°
2026-05-06 11:22 52.77732 6.48233 39870 ft 469 kts 243°